COSMOS 2459 (731) (36400 NORAD) Tracking and Keplerian Element Data

This shows tracking and keplerian element data for the satellite.

Feedback or suggestion? Click here.




ElementValue
Catalog36400
NameCOSMOS 2459 (731)
Epoch Orbit6520
Epoch Day198.58792188
Epoch Year2018
RAAN51.3999
Inclination65.6113
Eccentricity0.0027252
Argument of Perigee355.3148
Mean Anonmoly49.279
Mean Motion2.13102236
Decay Rate-5.3E-07
L11 36400U 10007A 18198.58792188 -.00000053 00000-0 10000-3 0 9999
L22 36400 65.6113 51.3999 0027252 355.3148 49.2790 2.13102236 65204

Live tracking and technical data element details for COSMOS 2459 (731) (NORAD 36400). COSMOS 2459 (731) can be tracked NOW for your location showing map with azimuth and elevation plus other details from your city location.

Track the satellite on the map from your city or location and see movement details for azimuth, elevation, latitude, longitude, range, height, and movement on the map or in text.







IsCatalogInMostPopularTable: catalog: 36400, numindb: 35
Update: records affected: 1



GetName: 36400 COSMOS 2459 (731)

Hit Count: updated at: Thu, 19 Jul 2018 21:08:51 GMT